Temperature
22 22 21 21 21 20 20 20 19 19 19 19 19 19 19 19 19 19 18 18 18 18 18 18 18 18 18 18 18 18 18 18 18 18 18 18 18 17 17 17 17 17 17
22 22 22 21 21 20 20 19 19 19 19 19 19 19 19 19 18 18 18 18 18 18 18 18 18 18 18 18 18 18 18 18 18 18 18 17 17 17 17 17 17 17 17
22 22 22 21 21 20 20 20 19 19 19 19 19 19 18 18 18 18 18 18 18 18 18 18 18 18 18 18 18 18 18 18 18 17 17 17 17 17 17 17 17 17 17
22 22 22 21 21 20 20 20 19 19 19 19 18 18 18 18 18 18 18 18 18 18 18 18 18 18 18 18 18 18 18 17 17 17 17 17 17 17 17 17 17 17 17
21 21 22 21 21 20 20 20 19 19 19 19 18 18 18 18 18 18 18 18 18 18 18 18 18 18 18 18 18 18 17 17 17 17 17 17 17 17 17 17 17 17 17
20 21 22 21 21 20 20 20 19 19 19 18 18 18 18 18 18 18 18 18 18 18 18 18 18 18 18 18 18 18 17 17 17 17 17 17 17 17 17 17 17 17 17
20 21 21 21 21 20 20 20 19 19 19 18 18 18 18 18 18 18 18 18 18 18 18 18 18 18 18 18 18 18 18 17 17 17 17 17 17 17 17 17 17 17 17
21 21 21 21 20 20 20 19 19 19 19 18 18 18 18 18 18 18 18 18 18 18 18 18 18 18 18 18 18 18 18 18 17 17 18 18 17 17 17 17 17 17 17
21 21 21 21 20 20 20 19 19 19 19 18 18 18 18 18 18 18 18 18 18 18 18 18 18 18 18 18 18 18 18 18 18 17 18 18 18 17 17 17 17 17 17
21 20 21 21 20 20 20 19 19 19 19 19 18 18 18 18 18 18 18 18 18 18 18 18 18 18 18 18 18 18 18 18 18 17 18 18 18 17 17 17 17 17 17
21 20 20 20 20 19 19 19 19 19 18 18 18 18 18 18 18 18 18 18 18 18 18 18 18 18 18 18 18 18 18 18 17 18 18 18 18 17 17 17 17 17 17
21 21 20 19 19 19 18 19 19 18 18 18 18 18 18 18 18 18 18 18 18 18 18 18 18 18 18 18 18 18 18 18 18 18 18 18 18 18 17 17 17 17 17
21 21 20 20 19 19 18 19 18 18 18 18 18 18 18 18 18 18 18 18 18 18 18 18 18 18 18 18 18 18 18 18 18 18 18 18 18 18 17 17 17 17 17
22 21 20 20 19 19 19 18 18 18 18 18 18 18 18 18 18 18 18 18 18 17 17 18 17 17 18 18 18 18 18 18 18 18 18 18 18 17 17 17 17 17 17
21 21 20 20 19 19 19 18 18 18 18 18 18 18 18 18 18 18 18 18 18 18 18 17 17 17 17 17 18 18 18 18 18 17 17 17 17 17 17 17 17 17 17
21 20 20 19 19 19 19 18 18 19 18 18 18 18 18 18 18 18 18 18 17 17 17 17 17 17 17 17 17 18 18 18 17 17 17 17 17 17 17 17 17 17 17
20 20 19 19 19 19 18 18 18 18 18 18 18 18 18 18 18 18 18 18 17 17 17 17 17 17 17 17 17 17 17 17 17 17 17 17 17 17 17 17 17 17 17
20 19 19 18 18 18 18 18 18 18 18 18 18 18 18 18 18 18 17 18 17 17 17 17 17 17 17 17 17 17 17 17 17 17 17 17 17 17 17 17 16 16 16
19 19 18 18 18 18 18 18 18 18 18 18 18 18 18 18 18 18 17 17 17 17 17 17 17 17 17 17 17 17 17 17 17 17 17 17 17 16 16 16 16 16 16
19 19 18 18 18 18 18 18 18 18 18 18 18 18 18 18 17 17 17 17 17 17 17 17 17 17 17 17 17 17 17 17 17 17 17 17 17 16 16 16 16 16 16
19 18 18 18 18 18 18 18 18 18 18 18 18 18 18 17 17 17 17 17 17 17 17 17 17 17 17 17 17 17 17 17 17 17 17 17 17 16 16 16 16 16 16
18 18 18 18 18 18 18 18 18 18 18 17 17 17 17 17 17 17 17 17 17 17 17 16 17 17 17 17 17 17 17 17 17 17 17 17 17 17 16 16 16 16 16
18 18 18 18 18 18 18 18 17 17 17 17 17 17 17 17 17 17 17 17 17 17 17 17 17 17 17 17 17 17 18 18 17 17 17 17 17 17 16 16 16 16 16
19 18 18 18 17 17 17 17 17 17 17 18 18 17 17 17 17 17 17 17 17 17 17 17 16 17 17 17 17 17 17 17 17 17 17 17 17 17 17 16 16 16 16
19 18 18 18 17 17 17 17 17 17 18 18 17 17 17 17 17 17 17 17 17 16 16 16 16 16 17 17 17 17 18 18 18 18 17 17 17 17 17 17 16 16 16
19 18 18 18 17 17 17 17 17 17 17 17 17 17 17 17 17 17 16 17 17 16 16 16 16 16 16 16 17 17 17 18 18 18 18 17 17 17 17 17 16 16 16
Wind_Speed
20 20 21 19 17 17 17 16 16 15 15 15 14 14 14 15 14 14 14 15 15 15 15 15 15 15 16 16 17 17 17 18 18 19 19 18 17 16 16 17 19 17 18
23 21 21 20 18 17 17 17 16 16 15 15 14 14 14 14 14 14 14 14 15 15 15 15 15 15 15 15 16 15 15 16 17 18 18 17 16 14 13 15 18 16 17
23 22 21 20 19 18 17 17 17 16 15 15 14 14 13 13 13 13 14 14 15 15 15 15 15 15 15 14 14 13 13 13 14 15 17 16 15 16 16 18 18 17 16
23 21 20 21 19 19 18 17 17 16 15 15 14 14 13 13 13 14 14 14 15 15 15 14 15 14 14 13 12 11 10 10 10 10 11 14 15 15 16 17 17 16 16
21 20 22 21 20 19 18 17 17 16 15 15 14 14 14 13 14 14 14 14 14 14 14 14 14 13 12 11 10 8 6 6 5 7 15 16 15 15 15 15 15 15 15
21 21 22 21 20 19 18 18 17 16 15 15 14 14 13 13 13 14 14 14 14 14 14 13 13 12 11 10 7 5 3 1 1 10 15 16 14 14 14 14 14 14 14
22 21 21 21 20 19 18 17 17 16 15 15 14 14 14 14 14 13 13 13 13 13 13 12 11 11 10 7 5 3 1 1 2 12 15 16 14 14 14 14 14 14 13
22 21 21 21 20 19 18 17 17 16 15 15 14 14 14 13 13 13 13 13 12 12 12 11 10 9 8 6 3 0 2 4 5 15 17 16 15 14 13 13 13 13 13
22 21 18 19 19 18 18 17 17 16 15 15 14 14 14 13 13 13 12 12 12 11 10 9 8 7 6 4 2 2 3 4 1 13 17 15 15 14 13 12 12 12 12
21 20 18 19 18 17 17 17 16 16 15 15 15 14 14 13 13 13 12 11 11 10 9 8 7 6 5 4 2 3 4 5 1 12 16 16 16 14 13 11 11 11 11
19 19 19 18 17 17 17 17 17 16 15 15 14 14 14 12 13 12 13 12 10 9 8 7 6 6 5 5 5 4 5 2 7 12 15 18 16 14 12 11 11 11 10
18 18 17 18 16 16 16 16 15 14 15 14 13 14 12 11 12 13 14 11 10 9 7 7 7 6 7 6 7 7 6 4 9 13 15 19 16 14 12 11 10 10 9
16 15 15 16 13 13 10 12 11 11 13 12 14 13 10 10 11 12 10 9 9 9 7 7 7 6 5 3 4 5 1 3 10 13 15 18 16 14 12 11 10 9 9
14 13 13 15 11 8 9 8 9 8 8 8 11 11 9 5 5 7 6 7 7 6 4 4 3 3 3 2 1 2 3 6 12 13 14 16 15 13 12 11 10 9 9
11 12 12 12 11 8 7 5 7 7 8 9 11 8 9 5 4 5 4 2 2 4 3 1 3 3 2 1 2 3 4 6 11 13 13 14 14 13 12 11 10 9 9
11 11 11 11 11 9 6 3 3 6 6 9 9 8 8 7 5 4 3 1 2 3 4 2 3 2 0 2 3 4 4 5 9 12 13 13 13 13 12 11 10 9 9
12 11 11 11 11 10 8 6 5 6 7 6 8 9 7 8 7 4 3 2 3 5 3 1 2 2 2 2 3 3 3 4 6 8 12 12 12 12 11 11 10 10 9
12 11 11 12 12 10 8 6 4 5 5 6 9 9 8 9 9 4 3 3 3 4 3 2 1 2 1 2 3 2 3 3 4 6 8 11 12 11 12 11 10 10 9
12 12 11 11 12 11 9 6 4 4 4 6 8 8 8 9 9 5 3 3 3 2 1 1 3 2 1 1 2 2 2 3 3 4 5 8 10 12 12 12 12 11 10
11 12 12 11 11 10 8 6 4 5 4 4 5 7 9 8 8 5 5 4 2 2 2 3 3 3 1 1 2 3 1 3 2 3 3 5 8 10 13 13 12 11 11
12 12 12 12 11 10 8 8 6 6 5 4 4 8 9 9 7 3 4 4 1 2 3 3 2 3 2 1 1 2 2 3 3 3 1 2 4 7 10 13 12 11 11
13 12 12 13 13 11 9 7 6 6 5 5 4 6 8 8 8 6 4 4 3 3 2 2 1 1 3 3 1 2 2 2 1 4 4 3 4 5 6 9 9 10 10
13 13 13 13 12 11 10 7 6 5 5 5 6 5 5 7 7 4 5 3 3 4 4 2 2 2 1 2 2 1 0 2 3 2 4 3 3 2 2 6 9 9 9
13 13 12 13 12 11 11 10 10 8 7 7 6 5 5 6 6 6 5 4 2 1 5 4 4 2 2 2 2 1 0 1 1 2 2 3 4 3 3 3 5 7 9
12 13 12 12 12 12 12 11 11 9 8 7 7 7 7 5 5 6 6 4 3 2 4 2 3 1 2 3 1 2 2 1 2 2 3 4 4 4 4 3 3 6 9
12 12 13 13 11 12 12 12 11 11 10 9 9 8 7 6 5 6 6 5 4 3 4 3 2 2 2 2 3 2 1 2 2 1 3 4 4 4 5 4 4 5 9
Wind_Direction
130 132 132 131 131 131 131 129 126 124 120 115 109 104 100 97 97 96 95 94 92 92 92 90 89 87 86 85 85 86 88 91 94 96 95 94 94 94 98 102 99 96 98
128 132 133 132 132 132 131 129 127 125 123 120 115 110 106 104 103 100 99 97 95 94 93 92 92 90 90 90 91 93 97 100 103 105 102 95 90 91 93 92 95 101 100
127 133 135 134 134 133 132 131 129 127 125 123 121 117 113 110 107 104 101 99 98 96 95 95 94 93 93 94 97 100 105 111 116 120 113 102 94 90 92 95 99 102 101
130 137 137 137 136 135 134 134 133 131 129 127 124 121 116 112 110 106 102 100 100 99 98 96 96 95 95 96 100 107 114 119 125 130 114 105 101 96 98 99 101 102 102
133 134 134 139 138 138 137 136 134 134 132 129 126 122 118 114 111 108 104 102 102 100 99 98 98 97 98 99 102 109 119 131 139 121 97 96 98 105 103 104 104 104 104
132 132 138 140 139 139 139 138 136 135 134 131 128 125 121 117 114 112 108 106 104 102 101 100 100 99 99 101 105 108 110 126 139 111 112 110 108 110 109 108 107 106 106
136 134 140 141 141 141 141 140 139 137 136 132 129 126 122 119 116 114 111 109 107 104 102 102 103 102 102 104 107 111 122 258 201 114 107 108 112 113 112 110 109 108 109
136 136 141 143 143 143 143 143 141 140 138 135 131 129 124 122 119 117 115 113 110 108 105 105 106 105 103 105 110 129 316 312 102 114 112 113 119 116 114 114 113 112 112
138 137 145 146 146 146 146 146 145 143 141 139 135 132 129 127 125 122 120 118 115 113 111 111 111 113 114 119 144 256 290 310 39 121 118 120 122 120 118 118 118 117 115
141 144 151 151 150 152 151 150 148 146 145 143 140 139 137 136 135 134 130 124 122 120 120 121 125 130 139 156 192 254 288 307 104 117 118 125 127 125 123 123 123 120 118
147 150 156 153 156 158 155 152 151 151 151 148 149 151 151 155 150 149 127 131 132 132 135 142 151 161 173 193 214 241 263 233 100 109 116 129 130 130 128 127 128 124 123
153 157 159 155 160 162 156 151 158 160 159 167 160 166 178 165 150 135 136 142 146 151 160 176 183 194 207 204 206 224 242 178 126 115 124 132 133 134 133 131 131 130 128
159 160 158 152 159 159 144 157 163 161 165 178 162 173 178 150 139 136 149 155 168 174 184 180 201 212 199 193 190 205 197 104 110 111 130 135 137 139 138 136 135 136 136
159 154 152 146 152 146 148 162 161 157 169 166 163 178 155 151 139 141 148 168 175 169 172 186 189 141 122 125 90 63 83 98 110 117 138 141 141 143 144 144 145 143 144
154 149 145 146 143 142 144 168 166 152 165 157 159 175 152 146 133 122 118 127 147 134 156 197 80 71 59 109 83 72 61 83 113 124 139 148 147 149 152 153 155 157 157
159 153 148 148 142 143 148 170 151 141 152 146 151 160 157 137 125 124 131 136 114 95 67 44 94 94 19 77 75 65 55 73 106 124 141 152 157 159 162 164 167 169 169
160 157 151 154 148 150 158 178 156 146 152 146 147 148 152 138 131 136 140 169 119 116 125 125 116 139 198 147 120 114 92 76 104 123 141 152 161 168 170 173 175 177 178
156 154 161 164 157 158 162 173 158 154 150 149 147 148 151 138 145 156 148 132 142 154 155 136 192 176 121 116 131 131 117 120 135 145 150 157 162 167 174 176 176 180 185
159 159 164 163 161 161 161 170 167 143 149 145 145 148 153 152 153 159 128 121 177 153 154 166 113 61 81 108 146 143 161 154 156 168 152 157 159 160 168 175 179 183 189
162 161 163 164 162 160 160 167 164 149 152 146 142 147 156 159 161 161 133 146 200 140 99 62 82 71 35 213 216 143 164 149 178 143 164 159 164 172 168 168 177 187 193
163 165 166 168 165 163 166 171 169 167 168 159 157 156 162 160 160 169 128 150 200 113 122 148 137 157 213 193 136 146 173 172 147 132 169 149 162 159 159 167 175 180 186
166 167 167 168 167 172 172 168 170 166 172 170 164 152 160 155 159 170 135 168 141 120 125 124 103 258 216 177 210 187 171 160 167 177 163 175 160 166 171 173 167 171 182
169 171 173 171 173 176 169 163 165 159 166 163 154 155 161 164 173 163 152 164 156 170 156 180 194 233 268 185 207 277 233 163 161 166 181 161 142 150 173 161 171 177 179
173 173 169 172 175 173 169 172 170 174 175 171 162 160 163 170 172 165 161 147 181 160 144 196 186 232 252 254 196 171 196 95 123 154 196 163 167 173 176 178 169 175 172
173 171 170 172 175 174 178 177 176 181 175 164 157 158 167 168 174 178 166 158 175 169 150 136 128 244 260 273 276 197 191 174 244 189 178 178 187 179 176 178 172 176 171
171 171 170 170 174 175 180 179 183 180 170 165 163 166 172 168 180 181 169 160 179 171 142 142 150 205 301 342 344 328 194 196 231 221 180 186 188 183 174 171 174 175 182
Height
1503 1505 1509 1512 1514 1516 1519 1521 1523 1525 1527 1529 1530 1531 1532 1534 1535 1536 1537 1539 1540 1541 1542 1543 1543 1544 1545 1546 1547 1548 1549 1550 1551 1552 1553 1554 1555 1556 1557 1558 1559 1560 1561
1501 1505 1509 1512 1515 1517 1520 1522 1524 1527 1529 1530 1532 1533 1534 1535 1537 1538 1539 1541 1542 1543 1544 1544 1545 1546 1547 1548 1549 1550 1551 1552 1553 1554 1555 1556 1557 1559 1560 1561 1562 1563 1564
1501 1506 1509 1513 1515 1518 1521 1523 1526 1528 1530 1532 1533 1535 1536 1537 1539 1540 1541 1543 1544 1545 1546 1546 1547 1548 1549 1550 1551 1552 1553 1554 1555 1556 1558 1559 1560 1561 1562 1564 1565 1565 1567
1501 1506 1510 1513 1516 1519 1522 1524 1527 1529 1531 1533 1535 1536 1538 1539 1541 1542 1543 1544 1545 1546 1547 1548 1549 1550 1551 1552 1553 1554 1555 1556 1557 1559 1561 1562 1563 1564 1565 1566 1567 1568 1569
1503 1507 1510 1514 1517 1520 1523 1525 1528 1530 1532 1534 1536 1538 1539 1541 1542 1544 1545 1546 1547 1548 1549 1550 1551 1552 1553 1554 1555 1556 1558 1559 1560 1561 1563 1564 1565 1566 1567 1568 1570 1571 1572
1505 1508 1511 1515 1518 1521 1524 1526 1529 1531 1533 1536 1538 1539 1541 1542 1544 1545 1547 1548 1549 1550 1551 1552 1553 1554 1555 1556 1557 1559 1560 1561 1562 1563 1565 1566 1567 1568 1569 1570 1571 1573 1574
1506 1508 1512 1516 1519 1522 1524 1527 1530 1532 1534 1537 1539 1541 1542 1544 1546 1547 1548 1549 1551 1552 1553 1554 1555 1556 1557 1558 1559 1560 1561 1563 1564 1565 1566 1567 1569 1570 1571 1572 1573 1575 1576
1506 1508 1512 1516 1519 1522 1525 1528 1531 1533 1536 1538 1540 1542 1544 1545 1547 1548 1550 1551 1552 1553 1554 1555 1556 1557 1559 1560 1561 1562 1563 1564 1566 1567 1567 1568 1570 1571 1572 1574 1575 1576 1578
1507 1509 1512 1516 1520 1523 1526 1529 1532 1534 1536 1539 1541 1543 1545 1547 1548 1550 1551 1552 1553 1555 1556 1557 1558 1559 1560 1561 1563 1564 1565 1565 1566 1567 1568 1569 1571 1572 1574 1575 1576 1578 1579
1507 1509 1512 1516 1519 1523 1526 1529 1532 1535 1537 1540 1542 1544 1546 1548 1550 1551 1552 1554 1555 1556 1557 1558 1559 1561 1562 1563 1564 1565 1566 1566 1567 1567 1569 1570 1572 1573 1574 1576 1577 1579 1580
1507 1509 1512 1516 1519 1522 1526 1529 1532 1535 1538 1541 1543 1545 1547 1549 1551 1552 1554 1555 1556 1557 1558 1560 1561 1562 1563 1564 1565 1566 1567 1567 1566 1568 1569 1571 1572 1574 1575 1577 1578 1579 1581
1505 1508 1512 1515 1518 1523 1526 1529 1532 1536 1538 1541 1543 1546 1548 1550 1552 1554 1555 1556 1557 1558 1560 1561 1562 1563 1564 1565 1566 1567 1567 1568 1567 1568 1570 1571 1573 1574 1576 1577 1579 1580 1581
1504 1508 1512 1515 1518 1523 1526 1528 1532 1536 1539 1542 1544 1546 1549 1552 1553 1555 1556 1557 1558 1559 1561 1562 1563 1563 1564 1565 1567 1568 1568 1568 1568 1569 1571 1572 1574 1575 1576 1578 1579 1580 1582
1503 1507 1511 1512 1517 1522 1526 1529 1532 1536 1539 1542 1544 1547 1550 1552 1554 1555 1556 1557 1559 1560 1561 1563 1563 1564 1565 1566 1567 1568 1569 1569 1569 1569 1571 1573 1574 1575 1576 1578 1579 1581 1582
1502 1505 1509 1512 1516 1520 1525 1529 1533 1536 1539 1542 1545 1547 1550 1552 1554 1555 1556 1558 1559 1561 1562 1563 1564 1565 1566 1567 1568 1569 1570 1570 1570 1571 1572 1573 1574 1575 1577 1578 1579 1580 1582
1500 1504 1508 1511 1515 1519 1524 1528 1532 1535 1539 1541 1544 1547 1549 1551 1553 1554 1556 1557 1559 1560 1561 1563 1564 1565 1566 1567 1568 1569 1570 1570 1571 1571 1572 1573 1574 1575 1577 1578 1579 1580 1582
1498 1502 1506 1510 1514 1518 1523 1527 1531 1534 1538 1540 1543 1546 1549 1550 1552 1554 1556 1557 1558 1560 1561 1562 1563 1564 1566 1567 1568 1569 1570 1571 1571 1572 1573 1573 1574 1575 1576 1577 1578 1580 1581
1496 1501 1505 1509 1512 1516 1521 1526 1530 1534 1537 1539 1542 1545 1547 1550 1551 1553 1555 1556 1558 1559 1561 1562 1563 1564 1566 1567 1568 1569 1570 1571 1572 1572 1573 1573 1574 1575 1576 1577 1578 1579 1580
1495 1499 1503 1507 1511 1515 1520 1525 1530 1533 1535 1538 1541 1543 1546 1549 1551 1553 1554 1555 1557 1559 1560 1562 1563 1564 1565 1567 1568 1569 1569 1570 1571 1572 1573 1574 1574 1575 1575 1576 1577 1578 1580
1494 1497 1501 1505 1509 1514 1518 1523 1528 1531 1534 1537 1540 1542 1545 1548 1550 1552 1553 1555 1557 1558 1559 1560 1562 1563 1564 1566 1567 1568 1569 1570 1571 1572 1573 1573 1574 1575 1575 1576 1577 1578 1579
1492 1496 1499 1503 1507 1512 1517 1521 1525 1529 1533 1536 1539 1542 1544 1547 1549 1551 1553 1554 1556 1557 1558 1559 1562 1563 1564 1566 1567 1568 1569 1570 1571 1572 1572 1573 1574 1574 1575 1576 1576 1577 1578
1490 1494 1497 1501 1505 1510 1515 1519 1524 1528 1532 1535 1538 1541 1543 1546 1548 1551 1552 1554 1555 1556 1557 1559 1560 1562 1564 1565 1567 1568 1569 1570 1570 1571 1572 1573 1574 1574 1575 1575 1576 1576 1576
1489 1492 1496 1499 1503 1508 1513 1518 1522 1527 1531 1534 1537 1539 1542 1545 1547 1550 1551 1553 1554 1556 1556 1558 1559 1561 1563 1565 1566 1568 1568 1568 1569 1571 1571 1572 1573 1574 1574 1574 1575 1575 1575
1487 1490 1494 1498 1502 1506 1511 1515 1519 1523 1527 1531 1535 1538 1541 1544 1546 1548 1550 1551 1553 1555 1556 1557 1558 1560 1562 1564 1565 1566 1567 1567 1569 1570 1571 1571 1572 1572 1573 1574 1574 1574 1574
1486 1489 1492 1495 1500 1504 1508 1512 1517 1522 1526 1530 1533 1537 1540 1542 1545 1547 1549 1550 1552 1553 1555 1556 1557 1559 1561 1563 1564 1565 1566 1567 1568 1569 1570 1571 1571 1571 1572 1572 1573 1573 1573
1485 1487 1490 1493 1497 1501 1505 1510 1515 1520 1524 1528 1531 1535 1538 1541 1543 1545 1547 1548 1550 1552 1553 1555 1556 1558 1559 1561 1562 1564 1565 1566 1567 1568 1568 1569 1569 1570 1571 1571 1572 1572 1572